Find Starlink 30442

NORAD ID: 57868 Int'l Des: 2023-144 Owner: SPXS Country: US Constellation: starlink operational
LEOCIRCULAR

現在のビュー

3D地球を読み込み中...

About Starlink 30442

Starlink 30442 (NORAD 57868) is a starlink constellation satellite (v2 mini) launched Sep 16, 2023 by SPXS of US. It operates in LEO, CIRCULAR orbit with a mass of 730.00 kg.

Starlink 30442について

説明を読み込み中...

次回通過

Passes for default location (London). Set your location on the main map for personalized predictions.

高度履歴

Loading altitude history...

軌道要素

1 57868U 23144E 26170.07941969 .00000468 00000-0 26538-4 0 9995
2 57868 43.0026 72.5674 0000985 269.6805 90.3933 15.27570801153103
Epoch: Jun 19, 2026 • Age: 29 hours

現在のステータス

高度 487.1 km
速度 7.62 km/s
衛星直下点 -19.50°S, 106.59°W
打ち上げ日 Sep 16, 2023
運用期間 2.7 years
タイプ internet

技術仕様

分類 Payload
質量 730.00 kg
乾燥質量 700.00 kg
総質量 730.00 kg
長さ 0.30 m
直径 4.10 m
スパン 29.00 m
形状 Box + pan
製造者 SPXS
バスタイプ Starlink V2M
フェーズステータス In Orbit
所有者/国 SPXS/US

Most Searched